This is the latest recevied weather packets stored in our database for station/object NK7I. If no packets are shown the sender has not sent any weather packets the latest 10 day(s).
| Time | Temp. | Humidity | Pressure | Rain* | Wind** | Luminosity | Snow |
|---|---|---|---|---|---|---|---|
| 1777924882 | 21.67° C | 41% | 1009 hPa | 0 mm | - | 990 W/m² | - |
| 1777924582 | 21.67° C | 44% | 1009 hPa | 0 mm | - | 1021 W/m² | - |
| 1777924282 | 21.67° C | 39% | 1008.9 hPa | 0 mm | - | 1118 W/m² | - |
| 1777923982 | 21.67° C | 39% | 1009 hPa | 0 mm | - | 1020 W/m² | - |
| 1777923682 | 21.67° C | 37% | 1009.1 hPa | 0 mm | - | 1172 W/m² | - |
| 1777923382 | 21.67° C | 41% | 1009 hPa | 0 mm | - | 1283 W/m² | - |
| 1777923082 | 21.67° C | 38% | 1009.1 hPa | 0 mm | - | 1274 W/m² | - |
| 1777922782 | 21.67° C | 42% | 1009 hPa | 0 mm | - | 1141 W/m² | - |
| 1777922482 | 21.67° C | 40% | 1009.1 hPa | 0 mm | - | 1143 W/m² | - |
| 1777922182 | 21.67° C | 40% | 1009.2 hPa | 0 mm | - | 1063 W/m² | - |
| 1777921882 | 21.67° C | 41% | 1009.2 hPa | 0 mm | - | 1137 W/m² | - |
| 1777921582 | 21.11° C | 42% | 1009.3 hPa | 0 mm | - | 1065 W/m² | - |
| 1777921282 | 21.11° C | 41% | 1009.4 hPa | 0 mm | - | 1013 W/m² | - |
| 1777920982 | 21.11° C | 40% | 1009.5 hPa | 0 mm | - | 923 W/m² | - |
| 1777920682 | 21.11° C | 44% | 1009.6 hPa | 0 mm | - | 953 W/m² | - |
| 1777920382 | 21.11° C | 45% | 1009.6 hPa | 0 mm | - | 1039 W/m² | - |
| 1777920082 | 21.11° C | 40% | 1009.5 hPa | 0 mm | - | 1248 W/m² | - |
| 1777919782 | 20.56° C | 44% | 1009.6 hPa | 0 mm | - | 1071 W/m² | - |
| 1777919482 | 20.56° C | 40% | 1009.6 hPa | 0 mm | - | 1005 W/m² | - |
| 1777919182 | 20.56° C | 42% | 1009.7 hPa | 0 mm | - | 984 W/m² | - |
| 1777918882 | 20.56° C | 43% | 1009.7 hPa | 0 mm | - | 1079 W/m² | - |
| 1777918582 | 20° C | 42% | 1009.7 hPa | 0 mm | - | 1056 W/m² | - |
| 1777918282 | 20° C | 43% | 1009.8 hPa | 0 mm | - | 974 W/m² | - |
| 1777917982 | 20° C | 45% | 1009.8 hPa | 0 mm | - | 1030 W/m² | - |
| 1777917682 | 20° C | 46% | 1009.8 hPa | 0 mm | - | 1021 W/m² | - |
* Rain latest hour (hover to see other rain measurements)
** Current wind speed in m/s (hover to see current wind gust speed)